Погода Кочубей

Погода Кочубей : погода сейчас, прогноз погоды и архив. Всё, что Вы хотите узнать о погоде Кочубей!

Поиск расширенной информации на нашем сайте:

Другие новости

Новости СМИ2

Главная страница сайта

Новости сайта

02.10.2013

Напоминаем, что на нашем новом сайте вы можете получить высокодетализированные прогнозы погоды по пунктам России, СНГ и мира (включающие важные для авиации метеовеличины, такие как направление и скорость ветра, видимость, явления погоды, количество и форма облачности, нижняя и верхняя граница облачности), а также ознакомиться с разнообразными материалами по авиационной метеорологии и подборкой полезных ссылок на эту тему.

Сайт Метеоцентр.Азия посвящён разработке технологий оптимизации авиаметеорологического обслуживания, включая проектирование и перспективное создание нескольких автоматизированных авиаметеорологических систем:
- система выпуска высокодетальных прогностических карт явлений погоды для нижнего воздушного пространства по России и ближнему зарубежью;
- система верификации прогнозов TAF (выпускаемых синоптиками официальных АМСГ РФ и ближнего зарубежья) и AUTOTAF (выпускаемых сайтом Метеоцентр.Азия) - выявление ошибок, онлайн-сопоставление с фактической погодой METAR, автоматическое внесение коррективов в прогнозы при резком отклонении фактической погоды от прогноза, подсчёт оправдываемости прогнозов по элементам и в целом;
- система обработки, анализа и отображения авиаметеорологической информации для применения провайдерами метеорологической информации.

Рекомендуем: Закупка услуг по изготовлению бланков.

Погода Кочубей - сегодня

Время (UTC), дата Ветер
(°,м/с) 
Видим.   Явления Облачность Т
(°С)
Тd
(°С)
f(%) Тe
(°С)
Pmin
(гПа)
dP
(гПа)
Po
(мм)
O2
(г/м3)
Тmin Tmax R s Состояние
почвы
03 20.04.17 300 (СЗ) 5{12}  20000 м    8/8 600 м 
[Sc]
+8.2 +3.1 70 +7  1021.4  1.1  768  300  +7.8    0.3    влажная 
06 20.04.17 290 (З) 5{13}  20000 м    8/6 600 м верхняя 
[Sc|Ci fib]
+10.4 +3.5 62 +9  1021.8  0.5  768  298           
09 20.04.17 280 (З) 20000 м    8/8 600 м 
[Cu hum]
+14.9 +3.3 46 +14  1020.5  -1.4  767  293           
12 20.04.17 290 (З) 20000 м    3/3 600 м 
[Cu hum]
+16.8 +1.7 36 +17  1019.3  -1.2  766  291           
15 20.04.17 020 (С) 20000 м    4/0 верхняя 
[Ci fib]
+14.7 +4.4 50 +14  1019.2  766  292    +16.9       
18 20.04.17 080 (В) 4000 м    8/8 600 м 
[Sc]
+9.3 +5.9 79 +9  1020.5  767  298           
21 20.04.17 110 (В) 4000 м    ясно 
+7.1 +4.6 84 +6  1019.8  -0.7  767  300           
00 21.04.17 110 (В) 4000 м    ясно 
+6.6 +4.2 85 +6  1017.8  -1.9  765  300           
03 21.04.17 090 (В) 20000 м    ясно 
+6.3 +4.1 86 +5  1017  -0.8  765  301  +3.2        сухая 
06 21.04.17 100 (В) 9-13{13}  20000 м    9/0 верхняя 
[Ci fib]
+13 +5.3 59 +11  1015.7  -1.3  764  293           
09 21.04.17 100 (В) 10-15{16}  20000 м    9/0 верхняя 
[Ci fib]
+15.3 +5 50 +14  1013  -2.8  762  290           
12 21.04.17 110 (В) //{16}  20000 м    9/0 верхняя 
[Ci fib]
+15.5 +5 50 +16  1012.7  -0.9  761  290           
15 21.04.17 100 (В) 7-11{15}  20000 м    10/10 600 м 
[Sc]
+12.5 +7.9 74 +11  1011.5  -1.1  761  292    +15.9       
18 21.04.17 110 (В) 6{12}  4000 м    10/10 600 м 
[Sc]
+11.3 +8.4 82 +10  1010.4  -1.2  760  293           
21 21.04.17 110 (В) 4000 м    10/10 600 м 
[Sc]
+10 +9 93 +11  1010.2  -0.2  760  294           
00 22.04.17 300 (СЗ) 12-22{22}  4000 м    10/10 600 м 
[Sc]
+9.4 +8.1 92 +6  1011.1  760  295           
03 22.04.17 310 (СЗ) 8-11{22}  20000 м    10/10 600 м 
[Sc]
+6.4 +3.6 82 +4  1014.4  763  300  +6.4         
06 22.04.17 300 (СЗ) 6{12}  20000 м    10/10 600 м 
[Sc]
+8.6 +3.4 70 +7  1014.4  763  297  +6.3         
09 22.04.17 260 (З) 5{11}  20000 м    10/10 600 м кучево-дожд. 
[Cb calv|Ac As]
+9.5 +3.2 65 +8  1016.3  1.9  764  297           
12 22.04.17 200 (Ю) н/о    н/о 
+12.7 +3.3 53 +12  1016.3  0.1  764  294           
15 22.04.17 260 (З) 4{12}  20000 м  в посл. час ливневой дождь  9/8 600 м кучево-дожд., средняя 
[Cb cap|Ac trans]
+11 +6.9 76 +10  1018.9  2.7  766  296    +13  0.3     
18 22.04.17 200 (Ю) 2{13}  н/о    н/о 
+6.1 +1.3 71 +6  1021.1  2.2  768  302           
21 22.04.17 170 (Ю) 4000 м    ясно 
+5.9 +0.7 69 +5  1020.8  -0.3  768  303           
00 23.04.17 150 (ЮВ) 4000 м    ясно 
+5.6 +0.4 69 +5  1019.7  -1.1  767  303           
03 23.04.17 100 (В) 20000 м    10/0 верхняя 
[Ci sp]
+4.6 +1.7 81 +4  1017.8  -1.9  765  303  +3.4        сухая 
Время (UTC), дата Ветер
(°,м/с) 
Видим.   Явления Облачность Т
(°С)
Тd
(°С)
f(%) Тe
(°С)
Pmin
(гПа)
dP
(гПа)
Po
(мм)
O2
(г/м3)
Тmin Tmax R s Состояние
почвы

Для получения пояснительной информации подведите курсор к названию столбца.

ПОГОДА Кочубей - архив

Всё, что Вы хотите узнать о погоде Кочубей - удобно и подробно!

Выберите нужную дату (начиная с 1 января 2015* года) и нажмите кнопку "Найти".
Будут отображены архивные сводки погоды по пункту Кочубей, начиная с указанной даты.


Отображать данные в формате CSV (для использования в таблицах Excel)


Внимание! Наш архив погоды предназначен исключительно для личного некоммерческого использования в познавательных целях. Если Вам необходимы официальные справки о состоянии погоды (для производственных, юридических, коммерческих и т.п. целей), обращайтесь в органы Росгидромета.

*Примечание: данная дата относится к архиву по метеостанциям СССР (Россия, СНГ, Балтия).
Архив по метеостанциям Зарубежной Европы и Азии (кроме Китая) хранится 10 дней, по другим регионам земного шара (Китай, Африка, Америка, Австралия, Океания) - 1 день.

Кочубей - район местоположения метеостанции


Название, широта, долгота, высота метеостанции:
Кочубей 44.4°ш. 46.6°д. -21 м над ур. моря [Российская Федерация]

Дополнительная информация

В oтличие oт бoльшинства пoгoдных сайтoв мы публикуем пoдрoбную метеoинфoрмацию в детальнoм прoфессиoнальнoм фoрмате.

Характеристики температуры и влажнoсти вoздуха измеряются на высoте 2 м в тени вдали oт зданий и деревьев.
Скoрoсть ветра измеряется на высoте 10 м (на урoвне рoста челoвека скoрoсть ветра ниже в 1.5-2 раза). Если метеoстанция нахoдится в гoрoде или в лесу, тo скoрoсть ветра занижена на 2-4 м/с пo сравнению с oткрытым местoм. Скoрoсть ветра над акватoриями крупных рек и oзёр, а также на вершинах хoлмoв на 2-5 м/с выше, чем в oбычных услoвиях.
Атмoсфернoе давление в разных тoчках местнoсти мoжет значительнo oтличаться oт давления на метеoстанции, в зависимoсти oт услoвий рельефа (при пoдъёме на 10 м давление пoнижается примернo на 1 мм рт.ст.).